Home   Weather   Willemstad   Past weeks

Flag for Curaçao Past Weather in Willemstad, Curaçao — Yesterday and Last 2 Weeks

82 °F

Passing clouds.

Feels Like: 91 °F
Forecast: 81 / 89 °F
Wind: 6 mph from Southeast

Location: Hato Airport - Curacao

Current Time: Oct 27, 2016 at 10:46:40 PM

Latest Report: Oct 27, 2016 at 10:00 PM

Visibility: N/A

Pressure: 29.83 "Hg

Humidity: 84%

Dew Point: 77 °F

Location of WillemstadLocation

Past Weather in Willemstad — Graph


Willemstad Temperature Yesterday

Maximum temperature yesterday: 88 °F (at 10:00 AM)
Minimum temperature yesterday: 82 °F (at 4:00 AM)
Average temperature yesterday: 85 °F

High & Low Weather Summary for the Past Weeks

High93 °F (Oct 18, 11:00 AM)94% (Oct 15, 1:00 AM)29.98 "Hg (Oct 15, 1:00 AM)
Low73 °F (Oct 18, 11:49 PM)52% (Oct 18, 10:00 AM)29.71 "Hg (Oct 17, 4:00 PM)
Average85 °F78%29.83 "Hg
* Reported Oct 12 9:00 PM — Oct 27 9:00 PM, Willemstad, Weather by CustomWeather, © 2016

Note: Actual official high and low records may vary slightly from our data, if they occured in-between our weather recording intervals... More about our weather records


Willemstad Weather History for the Previous 24 Hours

Scroll right to see more
Time TempWeatherWind HumidityBarometerVisibility
9:00 PM
Thu, Oct 27
84 °FPassing clouds.7 mph79%29.83 "HgN/A
8:00 PM84 °FPassing clouds.7 mph79%29.80 "HgN/A
7:00 PM84 °FPassing clouds.9 mph79%29.77 "HgN/A
6:00 PM84 °FPassing clouds.9 mph79%29.74 "HgN/A
5:00 PM86 °FPassing clouds.8 mph75%29.74 "HgN/A
4:00 PM86 °FPassing clouds.8 mph79%29.74 "HgN/A
3:00 PM86 °FScattered clouds.8 mph79%29.74 "HgN/A
2:00 PM86 °FScattered clouds.5 mph75%29.77 "HgN/A
1:00 PM81 °FScattered showers. Partly sunny.5 mph94%29.80 "HgN/A
12:00 PM79 °FThunderstorms. Scattered clouds.5 mph94%29.83 "Hg5 mi
11:00 AM79 °FThunderstorms. Scattered clouds.7 mph89%29.86 "Hg2 mi
10:00 AM84 °FSprinkles. Partly sunny.6 mph79%29.86 "HgN/A
9:00 AM88 °FScattered clouds.6 mph75%29.86 "HgN/A
8:00 AM81 °FScattered showers. Passing clouds.5 mph89%29.83 "HgN/A
7:00 AM79 °FPassing clouds.1 mph94%29.80 "HgN/A
6:00 AM79 °FPassing clouds.5 mph94%29.77 "HgN/A
5:00 AM79 °FPassing clouds.2 mph94%29.77 "HgN/A
4:00 AM79 °FPassing clouds.2 mph94%29.77 "HgN/A
3:00 AM81 °FPassing clouds.1 mph89%29.77 "HgN/A
2:00 AM81 °FSprinkles. Passing clouds.3 mph89%29.77 "HgN/A
1:00 AM79 °FSprinkles. Passing clouds.12 mph89%29.80 "HgN/A
12:00 AM84 °FPassing clouds.7 mph79%29.83 "HgN/A
11:00 PM
Wed, Oct 26
84 °FPassing clouds.6 mph79%29.83 "HgN/A
10:00 PM82 °FPassing clouds.9 mph89%29.83 "HgN/A
Weather by CustomWeather, © 2016

See weather overviewHow to use our weather pages